Theta_e
280 280 279 277 278 279 279 277 277 278 279 280 280 281 283 284 283 283 284 284 283 282 282 282 282 282 284 289 292 294 295 295 295 295 296 296 296 296 295 295 295 295 295 296 296 296 296 297 297 297 297 297 297 297 298 298 298 299 299 299 299 299 299 299 300 300 300 300 300 300 299 299 299 299 299 299 299 299 299 300 300 300 300 301 302 302
279 279 279 277 278 279 280 277 277 278 280 279 280 281 282 281 281 282 282 283 283 282 282 282 282 281 280 285 290 293 294 295 295 295 295 295 295 295 295 295 295 295 295 296 296 296 296 296 296 297 297 297 297 297 297 297 297 297 298 298 298 298 298 299 299 299 299 299 299 299 298 298 298 298 298 298 299 299 299 299 300 300 300 301 302 302
278 279 279 277 277 278 280 278 277 277 279 279 280 281 280 280 281 282 283 283 283 282 282 281 281 281 280 284 288 292 294 294 295 295 295 295 295 295 295 295 295 295 295 295 296 296 296 296 296 296 296 296 296 296 296 296 296 296 297 297 297 297 297 297 297 297 297 298 298 297 297 297 297 298 298 298 298 298 299 299 299 299 300 300 301 302
277 279 279 278 278 277 278 278 278 278 279 280 280 280 279 280 281 282 282 282 281 281 281 280 280 280 280 282 286 290 293 294 294 294 294 294 294 294 294 294 295 295 295 295 295 296 296 296 296 296 296 296 296 296 296 296 296 296 296 296 296 296 296 296 296 296 296 296 296 296 296 297 297 297 297 297 298 298 298 298 299 299 299 300 301 301
276 278 279 279 279 278 277 277 278 279 281 281 280 279 279 280 281 281 281 280 280 280 280 280 280 280 281 281 284 289 292 294 294 294 294 294 294 294 294 294 294 295 295 295 295 295 296 296 296 296 296 296 295 295 295 295 295 295 295 295 295 295 295 295 295 295 295 295 296 296 296 296 296 296 296 297 297 297 298 298 298 298 299 299 300 301
276 278 279 279 279 279 279 279 280 281 280 280 279 279 279 279 280 280 280 280 281 281 281 281 280 280 280 281 285 289 292 293 293 293 293 293 293 293 294 294 294 294 295 295 295 295 295 295 295 295 295 295 295 295 295 295 295 295 295 294 294 294 294 294 295 295 295 295 295 295 295 296 296 296 296 296 297 297 297 298 298 298 298 299 300 300
277 277 278 278 278 278 279 279 280 281 280 280 280 279 279 279 279 279 278 279 280 281 282 282 281 279 278 280 284 288 289 290 291 292 292 293 293 293 293 294 294 294 295 295 295 295 295 295 295 295 295 295 294 294 294 294 294 294 294 294 294 294 294 294 294 294 294 295 295 295 295 295 295 295 296 296 296 297 297 297 297 298 298 299 299 300
277 277 277 277 277 278 279 279 280 280 280 280 279 279 279 279 279 279 277 277 277 278 280 281 280 279 277 278 281 283 284 285 286 288 289 290 291 292 292 293 294 294 294 294 294 294 295 295 294 294 294 294 294 294 294 294 294 293 293 293 293 293 293 293 294 294 294 294 295 295 295 295 295 295 295 295 296 296 296 297 297 297 298 298 298 299
278 278 277 277 277 278 279 279 279 279 279 279 279 279 279 279 279 279 278 278 278 278 279 279 280 279 278 277 278 280 283 284 285 285 286 287 287 288 291 292 293 293 293 293 294 294 294 294 294 294 294 294 293 293 293 293 293 293 292 292 293 293 293 293 293 294 294 294 294 295 295 295 295 295 295 295 295 295 296 296 297 297 297 298 298 298
277 278 278 277 278 278 279 280 279 278 277 278 279 279 279 278 279 280 279 280 279 278 279 279 279 279 279 278 278 279 283 286 288 289 289 288 288 289 291 291 292 292 293 293 293 293 293 293 293 293 293 293 293 293 293 292 292 292 292 292 292 292 293 293 293 294 294 294 294 294 295 295 295 295 295 295 295 295 295 296 296 296 297 297 297 298
277 277 278 278 278 278 279 279 280 279 276 278 278 279 279 279 279 279 279 279 279 279 278 278 279 279 280 279 279 280 282 282 284 286 288 288 289 290 291 290 291 291 292 292 292 292 292 292 292 292 292 292 292 292 292 291 291 292 292 292 292 292 293 293 293 294 294 294 294 294 294 295 295 295 295 295 295 295 295 295 295 295 296 296 297 297
278 278 278 278 278 278 278 278 278 278 277 278 278 278 278 278 278 278 278 278 278 279 278 278 278 278 279 280 281 281 281 281 281 281 282 283 284 286 286 286 287 288 289 290 290 290 291 291 291 292 291 291 291 291 291 291 291 291 291 292 292 292 293 293 293 293 293 294 294 294 294 294 294 295 295 295 295 295 295 295 295 295 295 296 296 297
278 278 278 278 278 278 278 278 278 278 278 278 278 278 278 278 277 276 276 277 278 278 278 278 278 278 278 279 280 281 280 280 280 280 280 280 280 281 281 282 283 284 284 285 285 286 289 290 290 290 291 290 290 290 290 290 290 291 291 292 292 292 293 293 293 293 293 293 294 294 294 294 294 294 294 294 294 295 295 295 295 295 295 295 295 296
278 278 278 278 278 278 278 278 278 278 278 278 278 279 279 278 277 277 277 277 278 277 277 277 277 278 278 278 279 279 279 279 279 279 279 279 279 279 280 281 282 282 282 282 282 284 288 288 288 288 289 289 289 289 289 290 290 291 291 292 292 292 292 293 293 293 293 293 293 293 293 294 294 294 294 294 294 294 294 294 294 294 295 295 295 295
278 278 278 279 279 278 278 278 278 278 278 278 278 278 278 278 277 278 278 278 277 277 276 277 277 277 278 278 278 277 278 278 279 279 279 279 279 278 278 280 281 282 282 282 283 284 287 286 285 284 285 286 287 288 288 289 290 291 291 292 292 292 292 292 292 293 293 293 293 293 293 293 293 293 294 294 294 294 294 294 294 294 294 294 295 295
278 278 279 279 279 278 278 278 278 278 278 278 278 278 279 278 278 278 279 278 277 276 277 277 278 278 279 279 278 278 278 278 279 279 279 280 280 279 278 280 281 282 282 282 283 283 284 283 283 283 283 285 287 288 289 290 291 291 291 291 291 292 292 292 292 292 292 293 293 293 293 293 293 293 293 293 293 293 294 294 294 294 294 294 294 294
279 279 279 279 279 279 278 278 278 278 278 278 278 278 279 279 278 278 278 278 277 277 278 277 277 278 279 280 280 279 279 278 278 278 279 280 281 280 279 280 281 282 282 282 283 283 283 283 283 283 283 286 288 289 290 290 290 291 291 291 291 291 292 292 292 292 292 292 293 293 293 293 293 293 293 293 293 293 293 294 294 294 294 294 294 294
279 279 279 279 279 279 278 278 278 278 278 278 278 278 278 278 278 278 278 278 278 278 277 278 278 278 278 280 280 279 278 279 279 279 280 281 282 281 280 280 281 281 282 282 282 282 282 282 281 282 284 287 289 289 290 290 290 291 291 291 291 291 291 292 292 292 292 292 292 293 293 293 293 293 293 293 293 293 293 293 293 293 294 294 294 294
280 280 280 280 279 279 279 279 279 279 279 279 279 279 280 279 279 278 278 278 279 279 279 279 279 279 279 281 281 280 278 279 279 280 281 281 282 282 280 280 281 281 281 282 282 282 281 281 283 285 288 289 289 289 290 290 290 290 291 291 291 291 291 291 291 292 292 292 292 292 292 292 292 292 292 292 292 292 292 293 293 293 293 293 293 293
281 281 281 280 279 279 279 280 280 281 281 281 281 280 279 280 280 280 278 278 279 280 280 281 281 281 280 281 281 280 278 280 280 280 281 281 282 281 279 280 281 281 281 281 281 280 280 279 281 283 286 287 288 289 289 290 290 290 290 291 291 291 291 291 291 291 291 292 292 292 292 292 292 292 292 292 292 292 292 292 292 292 292 292 292 293
281 281 282 280 280 279 280 280 281 282 283 283 281 280 280 281 282 282 283 282 282 282 282 282 282 282 282 283 282 281 279 281 282 282 282 282 282 281 280 280 279 279 280 281 280 280 279 279 279 280 284 287 288 289 289 290 290 290 290 290 290 290 291 291 291 291 291 291 291 291 291 291 291 291 291 291 291 291 291 291 291 292 292 292 292 292
283 282 281 281 281 281 282 281 282 284 286 285 284 283 284 283 283 283 284 283 283 283 284 283 284 284 284 284 283 282 280 282 282 282 282 281 281 281 280 279 278 278 279 280 280 279 278 278 279 281 284 287 288 289 289 289 290 290 290 290 290 290 290 290 291 291 291 291 291 291 291 291 291 291 291 291 291 291 291 291 291 291 292 292 292 293
285 284 283 283 283 284 285 285 285 286 287 287 286 286 285 285 285 284 285 284 284 285 285 285 285 284 284 283 282 281 281 281 282 282 282 281 280 280 280 279 278 278 279 280 280 280 279 279 280 281 284 287 288 288 289 289 289 289 290 290 290 290 290 290 290 290 290 290 290 290 290 290 290 290 290 290 290 290 291 291 291 291 291 292 292 292
287 287 287 287 287 287 287 287 287 288 288 288 288 287 287 287 287 287 286 286 286 286 286 285 285 284 284 283 282 281 281 281 282 282 282 281 281 281 280 279 279 280 281 280 280 280 279 280 280 281 283 285 287 288 288 289 289 289 289 289 289 289 290 290 290 290 290 290 290 290 290 290 290 290 290 290 290 290 291 291 291 291 291 291 292 292
290 290 290 289 289 290 289 290 290 290 290 290 289 289 289 289 289 289 288 287 287 286 286 285 284 283 284 285 284 282 282 282 283 283 282 281 281 280 280 280 279 280 281 280 280 279 279 280 280 280 281 283 285 287 288 288 288 288 289 289 289 289 289 289 289 289 289 289 289 289 289 289 289 289 290 290 290 290 290 290 290 290 291 291 291 291
292 292 292 292 292 293 293 293 293 293 293 292 292 291 290 290 290 289 288 287 286 285 284 283 283 283 284 283 283 283 283 283 283 283 282 282 281 280 280 279 279 279 280 280 279 279 279 280 280 280 279 280 283 286 287 288 288 288 288 288 288 288 288 288 288 288 288 288 288 288 288 289 289 289 289 289 289 290 290 290 290 290 290 290 290 290
292 293 293 293 293 294 294 294 294 295 295 294 294 293 292 290 289 287 286 286 286 285 284 283 283 283 283 283 283 283 283 283 283 283 283 282 282 281 280 279 279 278 279 279 279 280 281 282 281 281 280 279 281 283 286 286 287 287 287 287 287 287 287 287 287 287 288 288 288 288 288 288 288 288 289 289 289 289 289 289 289 289 289 289 289 289
291 292 292 292 293 293 293 293 294 294 294 294 294 294 293 291 289 287 286 287 286 285 284 283 283 282 283 283 283 283 283 284 284 283 283 282 282 281 280 278 277 276 277 279 280 281 283 282 281 280 279 279 279 280 283 285 286 286 286 286 286 287 287 286 287 287 287 287 287 287 287 288 288 288 288 288 288 288 288 288 288 289 288 288 287 286
290 291 291 291 291 292 292 292 292 292 293 293 293 293 292 290 289 287 287 287 286 285 284 284 283 283 283 283 283 283 283 284 284 283 283 281 280 279 277 276 276 276 277 279 280 280 280 279 278 276 276 278 278 279 279 282 283 284 285 285 286 286 286 286 286 286 286 286 287 287 287 287 287 287 287 287 287 288 288 288 288 288 287 286 285 284
286 287 288 288 289 289 289 289 289 290 291 292 292 292 291 290 288 287 287 286 285 285 284 284 283 283 283 283 282 282 282 283 283 282 280 279 278 277 277 277 277 277 277 279 279 278 277 278 277 276 275 278 278 278 277 279 280 281 281 283 283 284 285 285 285 285 286 286 286 286 286 286 286 286 287 287 287 287 287 287 287 287 285 285 284 283
283 284 284 285 285 286 286 286 286 287 288 289 290 290 289 287 286 285 285 285 284 284 283 283 283 283 283 282 281 280 281 281 281 281 280 279 279 279 278 278 278 279 279 279 278 277 277 278 278 278 277 277 278 278 279 279 279 279 279 280 280 282 284 284 284 284 285 285 285 285 285 286 286 286 286 286 286 286 287 287 287 286 285 284 283 283
283 283 283 283 284 284 284 285 285 285 285 286 287 287 287 287 285 284 283 283 283 282 282 282 282 283 282 282 281 280 281 282 282 282 281 279 280 280 281 280 279 279 279 280 279 277 276 277 278 278 278 278 278 279 279 280 279 278 278 278 279 280 282 283 283 283 283 284 284 284 284 285 285 285 285 285 286 286 286 286 286 286 285 284 283 283
284 284 284 284 284 284 284 284 283 283 284 284 284 285 286 286 286 286 284 283 283 282 282 282 282 282 282 282 281 282 282 283 284 284 283 281 281 281 281 281 280 279 279 280 280 279 278 278 278 278 278 278 279 279 279 279 279 278 278 278 277 278 280 281 281 281 282 282 282 283 283 284 284 284 284 285 285 285 286 286 286 286 285 284 284 284
285 285 285 285 284 284 284 283 283 283 283 284 284 284 284 285 285 286 286 285 284 283 283 282 282 282 282 281 281 282 282 282 284 286 286 283 282 282 281 281 280 280 279 279 279 279 279 278 278 278 278 278 279 278 278 278 278 278 276 276 276 276 277 278 279 279 280 280 280 280 281 281 282 283 283 284 284 285 285 286 286 286 286 285 284 284
285 285 285 285 285 284 284 283 283 283 283 284 284 284 284 284 284 285 285 285 285 284 284 283 283 283 282 282 281 281 282 281 283 285 287 284 283 282 281 281 280 280 280 279 279 279 278 278 278 278 278 278 278 278 277 277 276 276 275 276 275 275 276 276 277 278 278 278 278 278 278 279 280 281 282 283 283 284 285 285 286 286 286 286 285 284
285 285 286 285 285 285 285 284 284 284 284 284 284 284 284 284 284 284 284 285 285 286 286 285 285 284 284 283 282 282 282 280 281 284 286 285 283 282 281 281 281 280 280 279 279 279 278 278 278 279 278 277 277 277 277 276 276 276 275 276 276 276 276 276 276 277 277 277 277 278 278 278 279 280 280 282 283 284 285 285 285 285 285 285 285 285
285 285 286 285 285 285 285 285 285 284 284 284 284 284 284 284 284 284 284 285 285 286 286 286 286 286 286 285 284 283 283 282 281 282 285 284 283 282 281 281 282 281 280 280 279 279 278 278 278 278 277 277 276 276 277 276 276 276 276 276 276 276 276 277 277 277 276 277 277 278 278 279 279 280 281 282 283 283 284 284 284 284 284 285 285 285
285 285 285 285 285 285 285 285 285 285 285 285 285 285 285 284 284 284 284 284 284 284 285 285 286 286 287 287 286 285 284 283 282 282 283 283 282 282 281 281 282 282 281 280 280 279 278 277 276 276 276 276 276 277 277 277 276 276 276 276 277 277 276 276 276 276 276 277 278 279 279 280 279 279 279 280 280 280 280 280 281 283 283 284 284 284
286 286 286 286 286 286 285 285 285 286 286 286 286 286 286 286 286 285 285 285 284 284 285 285 285 284 285 285 286 287 286 285 283 282 282 282 281 281 281 281 281 281 281 280 280 279 278 277 276 276 276 276 276 276 276 276 276 276 276 276 277 276 276 276 276 276 276 277 278 279 279 279 278 278 278 278 278 278 278 278 279 281 281 280 281 282
286 286 286 286 287 286 286 286 287 287 287 287 287 287 287 287 287 286 285 285 285 285 284 283 283 283 284 284 285 285 285 284 284 283 282 281 281 281 281 280 280 279 279 280 279 279 278 277 277 277 277 276 276 276 276 276 276 276 277 276 276 276 276 277 276 276 276 276 277 277 277 277 277 277 278 278 278 278 277 278 278 279 280 279 278 278
284 284 284 284 285 285 285 286 285 285 285 285 285 285 285 285 285 285 284 284 284 283 282 282 282 282 282 281 280 279 280 280 281 281 281 281 280 280 280 280 280 279 279 279 279 279 278 277 277 277 276 276 276 276 276 276 276 277 277 276 276 276 277 278 278 278 277 277 277 278 278 278 278 279 278 278 278 278 278 278 278 278 279 279 279 278
285 285 284 284 283 283 283 283 283 283 284 284 284 284 284 285 285 285 284 283 282 281 280 280 281 281 281 281 280 279 278 279 279 280 280 280 279 279 279 280 280 279 279 278 278 278 278 278 277 277 276 276 276 275 275 275 276 277 277 276 276 277 278 278 277 277 278 278 276 276 278 278 278 277 278 278 278 278 279 279 279 280 280 280 280 280
286 286 286 285 284 283 284 285 285 285 285 285 284 284 284 284 284 284 284 284 282 281 280 280 280 281 281 281 280 279 276 274 275 277 279 279 279 278 279 279 279 279 278 278 277 276 276 277 277 276 276 276 276 275 274 275 275 276 276 277 277 276 275 276 276 277 278 278 278 277 277 278 278 277 278 278 278 278 279 280 281 282 282 281 280 280
286 286 286 286 285 285 286 286 285 284 284 284 285 284 283 282 283 284 285 284 283 282 282 281 281 281 281 281 280 278 276 273 272 273 277 279 279 278 278 278 278 278 278 277 276 275 275 276 276 276 277 276 276 275 275 275 275 275 276 277 277 276 275 276 277 278 278 278 278 278 277 277 277 278 278 278 278 279 279 279 280 280 282 282 282 281
286 286 285 286 286 286 285 284 284 284 284 285 285 284 284 283 284 285 285 284 284 283 281 281 281 281 280 279 278 277 276 274 274 274 275 278 280 281 279 278 277 277 277 276 276 276 275 275 275 276 276 276 276 275 275 275 275 276 276 277 278 277 277 278 278 278 278 277 277 277 277 277 277 278 278 278 278 279 279 280 280 280 281 281 281 281
285 285 285 284 284 283 283 284 284 284 285 285 285 284 284 284 284 284 284 284 284 283 282 282 281 280 280 279 278 277 277 275 274 274 275 276 277 279 279 279 278 278 277 277 276 276 276 275 275 276 276 276 276 275 275 275 275 275 276 277 277 277 277 278 278 278 278 277 277 277 278 278 278 278 278 278 278 279 279 280 280 280 280 280 280 280
284 283 282 282 282 283 284 284 285 285 285 285 284 284 284 283 283 283 283 283 283 282 282 281 280 279 279 278 278 278 278 276 275 274 274 275 275 276 276 277 278 279 278 277 277 277 276 276 276 276 276 275 275 275 275 276 276 276 276 276 276 276 276 277 277 278 278 278 278 278 279 278 278 277 277 277 278 278 278 279 279 279 279 279 279 278
282 282 282 282 283 284 285 285 284 284 284 284 284 284 284 283 283 282 282 281 281 281 281 280 279 279 278 277 276 276 278 278 277 276 276 275 275 275 276 276 276 277 278 278 278 278 277 277 277 277 276 275 275 274 275 275 276 276 276 276 276 276 276 277 277 278 278 278 278 278 278 278 277 277 277 277 277 277 277 278 278 278 279 279 279 278
281 281 281 281 282 283 283 282 282 282 282 282 282 282 282 283 284 284 282 281 281 281 280 280 279 279 279 277 276 276 278 278 278 277 276 275 275 276 275 275 275 275 275 275 276 276 277 277 278 278 278 277 276 275 275 275 276 276 276 277 276 276 276 277 277 278 278 278 278 278 278 278 278 277 277 276 276 276 276 277 277 278 279 279 279 279
281 281 280 280 280 281 280 280 280 281 282 282 282 282 281 282 282 282 282 282 281 280 280 280 279 279 279 278 277 277 278 278 278 277 276 275 276 276 275 274 274 274 273 273 274 275 275 275 277 278 280 280 279 277 276 276 276 276 277 277 277 277 276 276 277 277 278 278 278 278 277 278 278 278 277 276 275 275 275 276 277 278 278 279 279 279
281 280 279 279 279 279 278 279 280 282 282 282 282 282 282 282 281 281 281 281 281 280 280 280 279 279 279 279 279 279 279 278 278 277 276 276 276 276 276 274 274 274 273 273 273 274 274 273 274 274 276 280 281 280 277 276 276 276 276 276 276 276 276 276 276 277 278 278 278 278 278 278 277 277 277 276 275 275 275 275 276 277 278 278 279 279
Wind_Speed
1 1 1 1 1 1 1 1 1 1 2 3 3 3 3 4 4 4 5 5 4 4 4 4 4 4 6 8 10 11 12 12 12 12 12 12 13 13 14 14 13 13 13 12 12 12 12 12 12 12 12 12 12 13 13 13 14 14 14 14 15 15 15 15 15 16 16 16 16 16 16 16 16 16 16 16 16 16 17 17 17 17 17 18 18 18
2 1 1 1 1 1 1 1 0 0 1 2 3 3 3 4 4 4 4 4 4 3 3 4 4 4 4 6 9 11 11 12 12 12 12 13 13 14 14 14 13 13 12 12 11 11 11 12 12 12 12 12 12 13 13 13 14 14 14 15 15 15 15 15 16 16 16 16 16 16 16 16 15 16 16 16 16 16 16 17 17 17 17 17 18 18
2 2 1 1 1 1 1 2 1 1 1 2 2 3 3 3 4 4 4 4 4 4 3 3 3 4 4 5 8 10 11 11 11 11 12 13 13 14 14 13 13 12 12 11 11 11 11 11 11 12 12 12 13 13 13 14 14 15 15 15 15 15 15 15 15 15 16 16 16 15 15 15 15 15 16 16 16 16 16 16 16 17 17 17 17 18
1 1 1 1 0 0 1 2 2 1 2 2 2 3 2 3 3 4 4 4 4 4 4 3 3 3 4 5 6 8 10 10 10 11 12 13 14 14 13 13 12 12 12 11 11 11 11 11 11 12 12 13 13 14 14 14 15 15 15 15 15 15 15 15 15 15 15 15 15 15 15 15 15 15 15 16 16 16 16 16 16 16 16 17 17 17
1 1 1 1 1 1 2 2 2 2 2 2 2 2 2 2 3 3 3 3 4 4 4 3 3 3 3 4 5 7 9 9 10 11 12 13 14 14 13 13 12 12 12 11 11 11 11 11 12 12 13 13 14 14 15 15 15 15 15 15 15 15 15 15 15 15 15 15 15 15 15 15 15 15 15 15 15 15 16 16 16 16 16 17 17 17
2 2 1 1 1 1 2 1 1 1 1 2 2 2 2 2 2 2 3 3 3 3 3 3 2 2 3 3 5 7 8 9 10 11 12 13 13 13 13 13 12 12 12 12 11 11 12 12 13 13 14 14 15 15 15 15 15 15 15 15 15 15 15 15 15 15 15 15 15 14 14 14 14 14 14 15 15 15 15 15 16 16 16 17 17 18
2 1 1 1 1 1 1 1 1 0 0 1 2 2 2 2 2 2 2 2 3 3 3 2 2 2 2 3 5 6 6 7 9 10 11 12 13 13 13 13 12 12 12 12 12 12 12 13 14 14 15 15 16 15 15 15 15 15 15 15 15 15 15 15 15 15 15 15 15 14 14 14 14 14 14 14 15 15 15 16 16 16 17 17 18 18
2 1 1 1 1 1 1 1 1 1 1 1 1 2 3 2 2 2 2 2 2 2 2 2 2 2 2 2 3 4 4 4 5 7 8 9 10 11 12 12 12 12 12 12 12 13 13 14 15 16 16 16 16 16 15 15 15 15 15 15 15 15 15 15 15 15 15 15 15 15 14 14 14 14 15 15 15 15 15 16 16 17 17 18 18 19
3 2 1 1 1 1 2 2 1 1 1 1 1 2 2 3 3 2 2 2 2 1 1 1 2 2 2 2 2 2 3 3 3 4 5 5 6 7 9 10 11 11 12 12 13 14 14 15 16 16 16 16 16 16 15 15 15 15 15 15 15 15 15 15 15 15 15 15 15 15 15 15 15 15 15 15 15 15 16 16 17 17 18 18 18 19
2 2 2 2 1 1 2 3 2 1 1 1 2 2 2 2 3 3 3 3 2 2 1 1 1 2 2 2 2 2 2 4 5 6 8 7 8 9 9 9 9 10 12 13 14 14 15 16 16 16 16 16 16 16 15 15 15 15 16 16 16 16 15 15 15 15 15 15 15 15 15 16 16 16 16 16 16 16 16 17 17 17 18 18 18 19
2 2 2 2 1 1 2 2 2 1 1 0 1 1 2 2 2 2 3 3 3 2 2 1 1 1 2 2 2 2 1 2 4 5 7 8 9 10 9 9 9 9 11 12 13 14 15 16 16 16 16 16 15 15 15 16 16 16 16 16 16 16 16 16 16 16 16 16 16 16 16 16 16 16 16 16 17 17 17 17 17 18 18 18 19 19
2 1 1 1 1 1 1 1 1 1 1 1 1 2 2 1 2 2 2 3 3 3 2 2 1 1 2 2 2 2 1 2 2 3 3 4 5 6 6 6 7 8 9 10 11 12 14 15 15 15 15 15 15 15 16 16 16 16 16 16 16 16 16 16 16 16 16 16 16 17 17 17 17 17 17 17 17 17 17 17 17 18 18 18 19 19
2 1 1 1 1 1 1 1 1 1 1 0 1 2 3 2 1 2 2 2 2 2 2 2 2 2 2 2 2 1 1 1 1 1 1 2 2 2 2 3 4 4 5 5 6 8 11 12 13 13 14 14 14 15 16 16 16 16 17 17 17 17 17 17 17 17 17 17 17 17 17 17 17 17 17 17 17 18 18 18 18 18 18 18 19 19
2 1 1 2 2 2 1 1 1 1 1 2 2 2 3 1 1 1 1 1 2 1 1 1 2 2 2 2 1 1 0 1 1 1 1 2 2 1 1 2 3 3 3 4 4 5 8 8 9 9 12 13 13 14 15 15 16 17 17 17 17 17 17 17 17 17 17 17 17 17 17 17 17 17 17 18 18 18 18 18 18 18 18 18 19 19
2 2 2 3 3 2 1 1 2 2 3 2 2 2 1 1 1 1 1 2 1 1 0 1 2 3 2 2 1 0 1 1 1 2 2 2 2 2 1 2 3 3 3 3 4 5 7 6 6 6 8 9 11 12 14 15 16 17 17 17 18 18 18 18 18 18 18 17 17 17 17 17 18 18 18 18 18 18 18 18 18 18 18 18 18 19
2 2 3 4 3 3 2 2 2 2 2 2 2 1 1 1 1 1 1 2 1 1 1 2 2 3 3 2 1 1 2 1 1 2 3 3 2 1 1 2 3 4 3 3 4 4 5 5 5 5 6 9 12 14 16 16 17 18 18 18 18 18 18 18 18 18 18 18 18 18 18 18 18 18 18 18 18 18 18 18 18 18 18 18 18 18
3 3 3 4 4 3 2 2 2 2 2 1 1 2 2 2 2 1 1 1 1 0 0 1 2 2 3 2 1 1 2 1 1 2 4 4 3 2 1 2 3 4 4 4 4 4 4 5 5 5 6 9 13 15 17 17 18 18 18 18 18 18 18 18 18 18 18 18 18 18 18 18 18 18 18 18 18 18 18 18 18 18 18 18 18 18
3 3 3 4 4 3 2 2 2 2 1 1 2 2 2 2 2 1 1 1 1 1 1 1 1 2 2 3 2 1 2 1 1 3 4 5 4 3 1 2 3 4 4 4 4 4 4 4 5 5 7 12 15 16 17 18 18 19 19 19 19 19 18 18 18 18 18 18 18 18 18 18 18 18 18 18 18 18 18 18 18 19 19 19 19 19
4 4 4 4 3 3 2 2 2 2 2 2 2 2 2 1 1 1 1 1 1 2 1 1 2 2 2 3 3 1 2 1 1 3 5 6 5 3 1 2 3 4 4 4 4 4 4 5 6 8 11 14 16 17 18 19 19 19 19 19 19 19 19 18 18 18 18 18 18 18 18 18 18 18 18 18 18 19 19 19 19 20 20 20 20 20
4 4 4 3 3 3 3 3 3 3 3 3 2 2 2 2 2 2 2 2 2 2 2 2 3 3 3 3 3 2 2 2 0 3 4 5 5 4 2 2 3 4 4 4 4 4 4 4 5 8 11 13 15 17 18 19 19 19 19 19 19 19 18 18 18 18 18 18 18 18 18 18 18 18 19 19 19 20 20 20 20 20 20 20 20 20
5 5 4 3 3 2 3 3 4 4 4 3 2 2 2 2 2 2 2 2 2 2 2 3 3 4 3 3 3 2 2 1 1 3 4 5 5 4 2 2 2 3 5 4 4 3 4 4 4 5 7 11 15 17 18 19 20 20 19 19 19 19 18 18 18 18 18 18 18 18 18 18 19 19 19 20 20 21 21 21 21 20 20 20 20 20
5 5 4 4 4 3 3 3 4 5 5 4 3 2 2 2 3 3 3 3 3 3 3 4 4 4 3 4 3 2 3 2 1 3 4 5 5 4 2 1 2 3 4 4 3 3 3 3 3 5 8 12 15 17 19 19 20 19 19 19 18 18 18 18 18 18 18 18 18 18 19 19 20 20 21 21 21 21 21 21 20 20 20 20 20 19
6 5 4 5 5 5 4 4 4 5 6 5 5 4 3 3 3 3 3 3 3 4 4 4 4 3 3 3 2 2 2 3 2 2 3 6 6 4 1 1 2 3 4 3 3 3 3 3 4 5 8 13 15 17 19 19 19 19 19 18 18 17 17 17 17 17 17 18 18 19 20 20 21 21 21 21 21 21 21 20 20 20 19 19 19 19
5 5 5 5 5 5 4 4 4 4 4 4 4 4 4 4 4 4 3 3 3 3 3 3 3 3 3 3 3 3 3 3 3 2 2 5 5 4 2 1 2 3 4 3 3 3 3 4 4 4 6 11 14 16 18 18 18 18 17 17 17 17 16 17 17 18 18 19 19 20 21 21 21 21 21 21 21 20 20 20 20 19 19 19 19 19
4 4 4 4 5 6 6 5 5 5 5 4 4 4 4 5 5 5 4 3 3 3 3 4 4 4 4 4 3 3 3 4 4 3 2 3 4 3 2 1 2 3 4 3 2 2 3 4 4 4 4 8 11 14 16 17 17 17 16 16 16 16 16 17 18 19 19 20 20 21 21 21 21 21 21 21 20 20 20 20 20 20 20 19 19 19
8 7 7 8 9 10 11 10 10 10 9 7 5 4 4 4 4 4 4 3 3 3 4 5 5 5 4 3 3 3 2 3 3 3 3 2 3 4 2 2 2 3 4 3 3 2 3 5 5 4 4 5 8 12 14 15 15 15 15 15 16 16 17 18 19 20 20 20 21 21 21 20 20 20 20 20 20 20 20 20 20 20 20 20 19 19
16 16 16 15 15 15 15 15 16 16 16 14 12 9 6 5 4 4 5 3 3 3 4 5 5 5 4 3 3 2 2 2 3 3 3 2 3 4 3 2 1 2 3 3 3 3 5 6 5 5 4 4 5 7 10 11 12 13 14 15 17 18 19 19 20 20 20 20 20 20 20 20 20 20 20 20 21 21 21 21 21 20 20 19 16 15
17 17 17 17 17 17 17 17 17 17 18 17 17 15 11 6 5 5 5 3 2 2 3 4 4 4 4 3 3 2 2 2 2 3 3 2 3 4 3 1 1 1 2 3 4 4 6 6 5 5 4 4 3 4 6 9 10 12 14 16 17 19 19 20 20 19 19 19 19 19 19 19 20 20 21 21 21 21 21 21 21 20 18 14 10 8
13 14 15 15 15 16 16 15 15 15 16 16 16 14 10 6 5 5 4 2 1 2 3 4 4 4 4 4 3 3 2 2 2 3 3 2 2 3 1 1 0 1 1 3 4 4 4 4 3 3 3 3 2 2 4 6 8 10 12 15 17 18 18 18 19 18 18 18 18 19 19 19 20 20 21 21 21 21 21 21 20 17 13 10 7 6
8 9 10 11 11 12 11 10 10 11 13 14 15 13 9 5 4 4 3 2 2 3 4 5 5 5 5 5 4 4 3 2 1 2 3 1 2 2 1 1 1 1 1 3 4 4 4 2 2 2 2 2 2 3 3 4 5 6 7 10 12 14 16 17 17 17 17 17 18 18 19 20 20 21 21 21 21 21 20 20 18 14 8 7 6 6
5 6 6 6 7 7 6 6 6 7 9 11 11 10 8 5 4 3 3 2 3 3 5 5 6 5 5 4 4 4 3 1 1 2 2 1 1 2 1 2 2 1 0 1 3 4 5 3 2 1 1 2 3 4 4 4 4 4 4 6 7 9 12 14 15 15 16 16 17 18 19 20 20 20 21 20 20 20 20 20 17 13 8 6 6 6
5 5 5 5 5 4 5 5 5 5 6 6 7 6 6 5 4 4 3 3 3 4 4 5 5 5 5 5 4 4 3 1 1 2 2 1 1 2 1 2 2 2 1 1 2 3 5 4 3 2 2 3 4 4 5 5 4 4 4 4 4 6 10 11 12 12 13 14 16 17 19 19 19 20 20 20 20 20 20 20 17 13 8 7 7 7
6 5 5 5 5 4 5 5 5 5 5 5 5 5 5 5 5 5 5 4 4 4 4 5 5 5 5 5 5 5 4 3 2 3 3 2 1 2 2 2 2 2 2 2 2 3 4 4 5 4 4 4 4 4 4 4 4 4 4 4 4 4 7 8 8 9 10 11 13 14 16 17 18 18 19 19 19 19 19 19 18 15 12 9 8 8
6 5 5 5 5 5 5 5 5 5 5 5 5 5 5 5 6 6 6 5 5 5 5 5 5 5 5 5 5 5 5 4 4 5 5 3 2 2 2 3 3 3 2 2 3 3 4 4 5 5 5 5 4 4 4 4 4 3 3 3 3 3 4 5 5 6 8 9 9 9 11 11 13 15 16 17 17 18 18 19 19 18 16 12 10 9
5 6 6 5 5 5 5 5 5 5 5 5 6 6 6 5 5 6 6 5 5 5 5 5 5 5 5 5 5 5 5 4 5 5 5 4 3 3 3 3 3 3 3 3 3 3 4 4 5 6 7 6 5 4 3 3 3 2 2 2 3 3 4 4 5 6 7 7 7 7 7 7 8 9 11 13 15 17 18 19 19 19 19 17 14 11
5 6 6 5 5 5 5 5 5 5 5 5 5 5 5 5 5 5 5 5 5 6 6 6 6 6 5 6 6 6 5 4 4 4 5 4 3 3 3 3 3 2 3 3 3 4 4 5 6 7 8 7 6 5 4 3 2 2 2 3 3 4 4 4 5 5 5 6 6 6 6 6 6 7 8 12 15 17 18 19 19 19 19 19 18 15
5 5 5 5 4 5 5 4 4 5 5 5 5 5 5 5 5 5 5 5 5 6 6 6 6 6 7 6 6 6 6 4 4 4 5 4 3 3 3 3 3 3 3 4 4 4 4 5 6 7 7 7 6 6 5 4 4 4 4 4 4 4 5 5 5 5 5 6 6 6 6 6 7 7 8 12 14 16 16 17 18 18 19 19 18 18
4 4 4 4 4 4 4 4 4 4 4 4 4 4 5 5 5 5 5 5 6 6 6 6 6 7 9 9 9 8 7 6 5 5 5 4 3 3 4 4 4 4 3 3 4 4 4 5 6 7 6 6 7 7 7 6 6 5 5 5 5 5 5 5 5 5 4 5 7 7 8 7 7 7 7 9 9 9 10 10 11 13 15 16 16 17
3 3 3 3 3 3 3 3 3 3 3 3 4 4 4 5 5 5 5 5 5 6 6 6 6 6 7 8 9 9 9 8 7 6 6 5 4 4 4 4 4 4 3 3 3 4 4 5 5 6 7 7 7 7 6 6 6 6 7 6 6 5 4 4 4 4 4 5 6 8 8 7 6 6 6 6 6 6 7 7 8 9 10 9 11 13
3 3 3 3 3 3 3 3 3 3 3 4 4 4 4 4 4 4 4 5 5 5 6 6 6 5 6 7 7 8 8 7 7 6 5 5 4 4 4 4 4 3 3 3 3 3 4 5 6 7 7 7 8 8 8 7 7 8 9 8 6 5 4 4 4 4 4 5 5 6 6 6 6 6 6 6 6 6 6 6 7 8 8 7 6 7
4 4 4 4 3 3 4 4 4 3 3 3 3 3 3 3 3 3 3 4 4 4 4 4 4 5 5 5 5 6 7 7 7 6 5 5 5 4 4 4 3 3 3 3 3 3 4 5 6 7 7 7 8 9 10 9 9 10 11 9 8 8 7 7 6 5 4 5 5 5 6 7 7 8 7 8 7 7 6 6 7 8 8 6 5 6
6 5 4 4 4 4 4 3 3 3 3 2 3 3 3 3 3 3 3 3 3 3 3 3 3 4 5 5 5 5 6 6 6 6 5 5 5 4 4 3 3 3 3 3 4 4 4 5 6 7 7 7 8 8 9 9 9 9 9 9 9 10 10 8 6 4 4 5 5 5 7 7 7 7 8 8 7 7 7 7 8 10 10 8 6 6
5 4 4 3 3 3 3 3 3 3 3 3 3 3 3 3 3 3 3 3 3 3 3 3 3 4 5 5 5 5 4 4 3 4 4 4 5 5 4 4 4 3 3 3 3 4 4 5 6 7 7 7 7 8 10 10 9 9 9 9 9 8 7 5 4 4 5 6 6 6 6 6 7 7 7 8 7 7 7 8 10 11 10 8 7 6
3 3 2 2 2 2 2 2 2 3 3 3 4 4 3 3 3 3 4 4 4 4 3 3 4 4 5 6 5 4 3 2 1 1 3 5 5 5 5 5 4 4 3 3 3 3 3 5 6 6 6 6 7 8 9 9 9 9 8 8 9 8 7 7 7 7 7 7 7 6 5 6 7 7 7 7 7 7 7 7 7 7 8 7 7 7
2 2 2 1 1 2 2 3 3 3 3 3 4 4 3 3 3 4 4 4 4 4 4 3 3 3 4 4 4 3 3 2 2 1 2 3 5 6 5 4 4 3 3 3 3 3 4 5 6 6 5 6 7 8 9 9 9 9 9 9 9 9 9 8 8 8 8 8 7 6 6 6 6 7 8 8 8 8 7 7 7 7 7 6 6 7
2 2 2 2 2 3 3 3 3 3 3 4 4 3 3 3 3 3 4 4 4 4 3 3 2 3 4 4 3 2 2 2 2 2 2 2 2 2 3 4 3 3 3 3 3 4 4 5 6 6 6 7 8 8 9 9 9 9 9 9 9 8 8 8 8 8 8 7 7 7 7 7 7 7 8 9 9 8 8 7 7 7 7 7 7 7
3 3 3 3 3 3 3 3 3 3 3 3 3 3 3 3 2 3 3 3 3 3 3 2 2 3 4 4 3 3 3 3 2 2 1 1 1 1 1 2 3 3 3 3 4 5 5 6 6 6 7 7 8 8 9 8 8 9 9 8 8 8 8 8 7 7 7 8 8 7 7 7 7 8 9 9 9 9 8 8 8 7 7 7 7 7
4 4 3 3 3 3 3 3 3 3 3 3 3 3 2 2 2 2 2 2 2 2 3 3 3 3 4 4 4 4 4 5 4 3 2 1 1 1 1 1 2 2 3 4 5 6 6 7 7 7 7 8 8 9 9 8 8 8 8 8 8 8 8 8 7 7 7 7 8 7 6 6 7 8 9 9 9 9 9 9 8 7 7 7 7 7
4 4 3 3 3 3 3 3 3 3 3 3 3 3 2 3 3 4 3 2 2 2 3 3 4 4 5 4 4 4 5 5 5 3 3 2 2 1 1 1 1 2 2 3 4 5 6 7 8 9 8 9 9 9 9 9 8 8 8 7 7 8 8 8 8 7 7 7 7 7 5 6 6 7 8 9 10 10 10 10 9 8 7 7 7 7
4 4 4 3 3 3 3 3 3 3 3 4 4 3 3 3 3 3 3 3 3 3 3 4 4 5 5 5 4 4 5 4 4 3 3 2 2 1 1 1 1 1 2 2 3 3 4 4 6 8 10 11 11 10 9 9 8 8 7 7 7 7 7 8 7 7 7 8 8 7 6 6 6 6 7 9 10 11 11 10 10 8 7 6 6 7
4 4 4 4 4 4 3 3 3 4 4 4 4 4 4 3 3 3 3 3 3 3 4 4 4 5 6 5 5 5 5 4 4 4 3 2 2 2 2 1 1 2 2 3 3 3 3 3 4 5 7 10 12 11 8 7 7 7 7 7 6 5 6 6 7 7 8 8 8 7 7 7 7 7 7 8 9 11 11 10 10 9 7 6 6 7
Wind_Direction
264 272 297 328 354 349 323 9 31 8 325 323 324 328 329 331 325 316 311 308 303 297 295 294 294 296 300 302 304 307 309 310 311 313 315 318 321 323 324 324 323 322 321 321 321 321 321 321 321 322 322 321 321 320 319 318 317 316 315 314 313 312 311 310 309 308 307 307 306 306 306 306 306 305 304 302 301 299 298 297 296 296 295 294 293 292
301 301 310 24 58 51 298 310 11 66 314 311 312 318 325 324 319 314 311 306 299 292 290 290 292 293 292 295 300 303 305 307 308 311 315 318 321 323 323 322 321 320 320 319 319 320 321 322 322 323 323 322 322 321 320 319 318 317 316 314 313 312 311 310 309 309 308 307 307 306 306 306 304 303 302 301 300 299 298 298 297 297 296 295 294 294
319 320 309 14 72 95 268 289 271 208 221 275 292 303 315 314 311 308 307 305 303 299 290 286 286 286 284 287 295 300 302 304 307 310 316 319 322 323 322 321 320 319 318 318 319 319 321 322 323 324 324 323 323 322 321 320 319 318 316 315 314 313 312 311 310 310 309 308 307 307 306 305 304 302 302 301 300 300 299 299 298 298 297 296 296 295
295 282 279 307 345 209 233 259 260 248 231 260 280 292 299 299 297 295 294 296 298 299 294 285 279 274 275 281 289 294 298 302 307 312 318 321 322 322 322 320 319 318 317 318 318 320 321 323 323 324 324 324 323 323 322 320 319 318 317 316 315 314 313 312 312 311 310 309 308 307 306 304 303 302 302 302 301 300 300 299 299 298 298 297 296 295
248 236 246 255 272 260 247 245 251 260 265 272 281 288 290 284 285 287 290 291 293 292 290 284 272 262 265 274 283 289 294 301 308 315 319 322 322 322 321 321 319 318 318 318 319 320 322 323 323 324 324 323 323 322 321 320 319 318 318 317 316 315 315 314 313 312 311 310 308 307 306 305 304 303 302 302 301 300 300 299 299 298 298 297 296 296
248 238 237 222 236 250 260 251 250 271 297 294 290 285 279 275 279 288 294 295 293 290 286 280 269 260 261 267 277 284 292 301 310 316 319 321 322 322 322 321 320 319 318 319 320 321 322 323 323 323 323 323 322 321 320 320 319 319 318 318 317 316 315 314 313 312 311 309 308 307 306 305 304 303 302 301 300 299 299 299 298 298 298 297 297 297
263 268 297 288 271 265 268 257 240 233 321 310 308 305 297 287 281 280 280 285 288 289 288 285 283 277 270 269 274 280 289 301 309 315 317 318 319 320 321 321 320 320 320 320 321 322 323 323 323 323 322 322 321 321 320 320 320 320 319 319 318 317 316 314 313 311 310 309 307 306 305 304 303 302 301 300 299 298 298 298 298 298 298 298 298 297
268 287 326 305 304 307 300 274 236 191 184 276 303 312 315 312 303 290 283 285 285 286 291 297 301 301 290 279 276 278 282 294 302 308 312 313 315 317 318 319 320 321 321 321 322 322 322 322 322 322 321 321 320 320 320 321 321 321 320 319 318 317 315 313 312 311 309 308 307 306 305 304 302 301 300 299 298 298 298 297 298 298 298 298 297 297
253 268 278 238 240 285 297 287 263 215 186 212 248 279 299 307 309 309 313 309 302 293 293 307 309 307 300 291 283 278 273 276 284 294 302 305 309 313 316 319 320 321 321 321 321 321 321 321 320 320 320 320 320 320 321 321 321 321 320 318 317 315 314 312 311 309 308 307 307 306 305 303 302 300 299 298 297 297 297 297 297 296 296 296 296 296
245 251 263 245 221 220 257 272 265 236 182 200 219 232 244 271 289 302 313 311 308 304 304 283 284 292 297 297 292 285 279 283 290 297 304 308 310 313 315 317 319 319 318 318 319 319 319 319 318 318 318 318 319 320 320 320 320 319 318 316 315 313 312 310 310 309 308 307 307 306 305 303 302 301 300 299 298 297 296 296 296 295 295 295 294 294
254 246 250 258 250 230 224 248 256 258 96 146 251 245 227 229 242 268 290 293 298 304 306 275 248 250 275 290 290 286 281 292 298 303 309 311 313 313 314 314 314 314 315 316 316 317 316 316 316 316 316 316 317 318 318 318 317 316 314 313 312 310 310 309 309 308 308 308 307 306 305 304 303 302 301 300 299 298 297 296 295 295 294 294 293 293
254 253 245 252 262 268 254 263 293 355 37 26 342 313 292 241 202 197 235 261 275 286 296 293 272 243 232 252 268 277 280 286 294 301 311 313 314 314 313 312 312 312 313 313 313 313 313 312 312 312 313 313 314 314 314 314 313 312 311 309 309 308 308 308 308 308 308 308 307 307 306 305 304 303 302 301 300 299 298 297 296 295 294 293 293 292
248 252 262 263 261 259 261 300 330 350 20 48 256 264 269 248 191 164 190 230 245 254 271 293 292 276 241 235 243 264 281 284 286 295 310 308 309 309 309 305 303 304 307 308 306 306 307 308 308 308 308 308 309 309 309 308 308 307 307 306 306 307 307 308 308 308 308 308 307 306 306 305 305 304 303 302 301 300 299 297 296 295 294 293 292 292
250 255 269 269 264 255 235 233 249 261 252 223 220 225 233 219 171 153 193 243 245 239 229 269 282 284 275 260 251 245 288 307 313 317 313 291 277 271 279 288 288 288 292 295 294 294 297 301 303 304 303 303 304 304 303 304 304 304 304 305 306 307 307 307 307 307 307 306 306 306 306 305 305 304 303 302 301 300 299 298 297 295 294 293 292 291
240 244 256 259 257 252 231 213 222 233 236 227 224 227 230 210 176 176 215 257 267 276 323 291 286 284 282 274 262 124 74 15 337 322 309 290 268 244 234 278 284 284 283 286 286 287 291 294 294 293 294 294 294 295 296 299 301 303 304 306 306 307 307 307 306 306 306 306 306 306 306 305 305 304 303 302 302 300 299 298 297 295 294 293 292 291
227 230 243 252 254 249 229 207 213 226 234 230 226 223 228 238 223 205 205 237 257 305 359 330 316 306 292 286 278 100 88 59 341 306 305 296 282 249 199 271 284 285 281 279 281 283 288 287 283 282 284 286 290 293 295 299 302 304 305 306 306 306 306 306 306 306 306 306 306 306 306 305 305 304 304 303 302 301 300 299 297 296 295 293 292 291
225 229 239 250 255 254 236 210 208 218 227 232 228 220 215 219 213 203 193 204 216 278 347 325 315 309 304 307 310 103 105 89 318 299 301 298 292 274 209 256 278 284 283 279 278 280 283 283 282 280 280 283 289 293 297 301 303 304 305 306 306 306 306 306 306 306 306 306 306 306 306 305 305 305 304 303 303 302 301 300 299 298 297 296 294 293
227 229 236 246 252 251 235 214 210 214 219 229 233 233 224 214 203 191 186 184 190 205 232 240 261 275 292 299 293 250 126 120 301 300 301 296 293 285 239 247 265 276 280 279 277 275 275 275 274 275 278 287 291 295 299 302 303 304 304 305 306 306 307 307 307 307 307 307 306 306 306 305 305 304 304 304 304 303 303 302 301 300 299 298 296 294
232 229 230 239 246 247 237 218 208 205 209 217 219 223 235 225 204 187 190 190 196 203 221 249 257 260 267 277 276 252 142 138 292 299 297 293 292 290 273 260 266 273 277 277 276 273 271 269 271 274 279 287 292 296 299 301 302 303 304 305 306 307 307 307 307 307 307 307 306 306 305 305 305 305 305 305 305 305 304 303 302 301 299 298 296 295
235 233 227 227 234 243 243 226 212 203 205 205 202 204 223 225 216 208 208 205 205 210 221 246 257 261 261 269 269 252 148 129 289 294 289 289 289 288 279 265 269 274 277 275 273 269 266 264 269 276 281 286 291 295 298 300 301 303 304 306 306 307 307 308 308 308 307 307 306 306 305 305 306 306 306 306 306 305 305 303 302 300 299 297 295 293
235 235 224 206 206 226 239 221 207 203 203 198 196 203 222 232 236 236 231 227 230 235 240 249 254 256 255 263 262 242 165 159 283 290 289 287 285 282 271 255 261 269 275 273 269 262 258 259 261 268 276 285 290 294 297 299 301 303 304 305 306 307 308 308 308 308 307 307 307 307 307 307 307 308 308 307 306 305 304 303 301 299 297 296 294 292
231 234 219 199 201 219 239 225 212 206 205 206 212 225 238 244 249 252 251 247 248 250 253 255 254 252 249 257 257 236 170 180 243 276 289 287 285 280 259 236 248 262 270 272 269 261 255 258 260 267 275 284 290 294 297 299 301 302 304 305 306 307 308 308 308 308 308 308 308 308 309 309 309 308 308 307 306 305 303 302 300 299 297 295 294 292
227 232 224 209 211 222 235 233 224 215 211 217 224 232 239 244 250 254 255 250 249 252 255 258 259 257 249 250 250 232 183 180 194 236 275 281 283 281 252 220 242 262 267 272 275 275 271 268 266 270 277 285 289 292 295 298 300 302 304 305 307 308 309 309 310 310 310 310 310 310 310 309 309 308 307 306 305 304 303 302 301 299 298 297 296 295
228 232 231 223 221 224 230 232 230 225 221 224 229 233 237 240 244 246 247 246 250 255 261 267 269 267 256 249 246 235 206 186 185 204 250 271 278 280 264 237 257 269 272 272 275 279 283 278 273 270 273 282 286 289 293 296 299 302 304 306 308 309 311 311 311 311 311 311 310 310 309 309 308 307 306 306 305 305 304 303 302 301 299 299 298 297
236 232 228 225 224 225 227 227 227 226 225 225 228 233 238 242 246 248 248 248 251 257 265 268 268 266 263 255 249 236 211 188 184 194 230 262 273 273 255 233 256 273 279 278 277 280 285 285 280 274 270 276 282 287 291 295 299 303 306 308 310 311 312 312 312 312 311 310 310 309 308 308 307 307 306 306 306 306 305 305 304 303 302 301 301 300
256 252 249 247 245 244 242 242 242 243 244 242 239 236 238 242 245 248 246 243 242 244 252 260 263 264 265 260 252 240 216 187 182 188 206 251 272 275 263 241 249 267 282 284 286 288 289 288 286 281 274 273 280 285 290 296 301 306 310 312 313 313 313 312 311 310 310 309 308 308 307 307 307 307 307 307 307 307 306 306 305 304 303 303 302 301
262 264 265 265 264 263 263 263 263 263 263 264 264 263 261 257 255 254 249 242 232 230 240 254 263 268 269 263 254 241 215 190 183 185 190 235 267 275 274 257 251 266 282 286 287 287 289 289 289 287 281 274 277 285 295 301 307 312 315 314 313 312 311 310 310 309 308 307 307 307 307 307 307 307 308 308 308 307 307 307 306 305 305 304 303 301
261 264 267 269 271 273 274 275 275 275 275 275 275 275 275 271 267 265 263 259 240 230 240 253 264 273 277 273 266 253 228 210 195 185 177 215 255 268 273 264 247 261 283 288 288 286 284 283 282 281 278 277 281 294 303 310 314 316 316 313 312 310 309 308 307 307 307 306 306 307 307 308 308 308 308 308 308 308 308 307 307 306 305 304 302 299
260 263 266 268 271 273 275 276 277 278 278 277 277 276 275 271 268 270 279 298 294 266 260 264 271 278 284 286 284 276 255 233 201 173 155 196 246 264 271 272 260 267 296 298 295 288 275 266 262 264 269 281 291 302 304 313 316 315 312 310 308 306 306 306 305 306 306 306 307 307 308 308 309 309 309 309 308 308 308 308 308 307 305 302 298 293
256 260 263 265 267 269 271 273 274 275 274 273 272 271 269 266 264 267 281 297 292 281 277 279 280 283 288 292 291 285 267 244 185 141 133 172 237 259 268 275 261 264 312 310 304 297 285 262 241 237 262 288 295 297 296 304 306 305 304 303 302 302 302 303 304 305 306 307 308 308 309 309 309 309 309 309 309 309 309 309 308 307 303 299 294 290
237 242 248 253 256 258 260 261 263 266 267 267 267 266 264 260 255 254 254 254 257 264 272 276 278 280 283 286 285 281 276 254 143 125 126 163 229 256 261 276 271 256 202 300 303 302 300 292 268 236 260 290 295 295 293 293 292 290 289 292 294 296 299 301 304 305 307 307 308 308 308 308 308 308 308 308 309 309 309 309 309 307 302 298 293 289
223 228 233 236 238 241 244 247 248 251 254 257 258 257 255 251 244 236 228 226 229 238 252 261 267 269 269 267 267 270 277 279 162 151 146 180 245 264 257 269 271 262 210 219 259 283 296 299 299 295 289 291 291 290 288 286 284 282 283 285 286 291 297 301 304 306 307 307 307 307 307 307 307 307 307 308 308 308 308 308 308 307 303 299 295 291
218 222 225 226 228 229 231 232 234 235 237 239 241 242 243 242 238 232 225 220 218 222 230 242 251 257 259 258 258 261 267 272 234 200 192 206 250 266 262 265 267 266 252 234 236 249 271 286 296 300 296 290 286 284 283 283 281 279 278 282 284 290 297 302 304 304 304 304 304 304 304 305 305 305 305 306 306 306 306 306 306 306 304 302 300 298
218 221 224 223 223 223 224 224 225 227 229 230 231 231 232 233 234 232 228 224 219 218 220 226 235 244 250 253 255 256 257 257 247 235 222 226 247 263 265 264 265 267 270 261 254 254 262 275 287 295 296 292 287 282 282 283 281 278 270 272 277 285 293 299 300 299 298 299 299 299 300 300 300 301 302 303 303 303 304 304 305 305 305 304 303 302
221 223 225 223 222 222 222 222 223 225 226 228 230 230 230 231 232 233 233 231 227 224 222 223 227 232 239 245 251 255 254 248 239 234 230 231 242 257 264 258 257 260 266 267 267 269 273 278 285 292 297 297 294 287 280 273 271 269 261 260 267 277 285 291 294 295 294 294 292 291 291 291 292 294 297 298 299 300 302 304 305 305 305 304 302 300
226 227 227 224 223 224 224 223 222 224 226 228 228 228 230 232 234 236 238 238 237 236 235 232 231 231 232 237 244 250 254 249 237 229 229 228 234 246 258 255 249 249 260 267 271 275 281 286 290 292 295 296 296 295 290 281 275 277 277 276 278 281 283 284 284 285 287 288 288 288 288 287 287 288 290 295 298 300 302 303 304 304 304 302 300 298
230 232 231 227 226 227 229 226 223 222 225 226 225 224 224 228 232 235 237 239 241 243 243 243 241 239 238 238 240 245 252 250 245 237 233 228 226 234 251 257 253 249 254 267 276 282 287 290 293 293 292 291 293 297 302 305 304 299 293 291 289 287 284 280 276 275 277 281 283 285 287 288 288 288 290 295 298 300 302 302 302 302 301 300 299 297
229 232 232 227 225 226 231 231 229 227 226 225 224 223 222 224 227 230 234 237 239 242 246 247 247 247 245 247 247 248 252 251 249 245 238 229 225 230 246 258 259 255 253 264 275 284 289 292 295 296 294 290 289 292 298 305 306 303 299 295 289 283 278 274 271 268 271 277 282 286 288 289 289 290 292 295 298 299 299 298 297 298 299 298 297 296
223 227 227 220 217 218 223 228 229 229 228 228 227 227 226 228 230 231 234 237 240 242 244 246 249 251 250 252 254 255 257 255 251 245 237 229 225 229 241 252 256 257 255 262 270 278 282 284 288 292 295 295 295 295 297 299 300 301 303 300 293 282 272 271 270 271 272 278 284 287 289 289 289 289 290 291 292 293 293 293 294 295 297 297 296 295
241 237 232 225 216 209 208 215 217 217 217 221 225 227 227 231 233 235 234 236 239 242 243 245 248 252 254 257 259 260 261 259 255 248 239 230 226 227 232 243 251 258 260 262 264 267 272 277 281 284 286 291 294 296 298 296 297 300 303 302 299 295 294 292 287 281 276 276 279 283 286 287 286 286 287 288 289 290 291 292 292 293 293 292 292 293
250 249 247 241 233 225 222 221 217 215 215 218 222 225 227 231 236 239 236 235 236 239 242 246 252 257 258 256 255 255 255 257 255 251 244 233 226 222 224 234 243 252 259 262 263 264 267 274 279 281 282 285 288 289 289 290 293 296 298 296 295 296 299 296 292 287 281 277 277 280 287 290 292 292 291 291 289 286 285 285 285 286 285 280 278 281
247 248 247 243 239 236 235 234 235 237 238 241 241 241 238 237 239 241 241 239 237 236 235 240 250 258 260 258 253 248 245 245 244 241 238 227 217 211 215 226 235 243 251 261 264 265 264 270 275 279 281 284 286 287 286 287 289 290 289 289 292 295 295 291 287 284 286 287 287 286 289 291 292 291 291 289 286 283 281 278 279 280 281 278 275 272
247 248 247 242 238 236 238 244 249 252 252 253 252 249 243 239 240 245 251 251 248 242 236 234 239 248 256 257 255 251 245 240 233 226 221 212 206 205 211 219 223 227 231 250 263 267 266 267 270 273 278 280 281 282 283 286 287 286 282 284 289 293 294 294 294 294 293 293 291 290 288 288 288 288 287 287 286 284 280 276 275 275 275 275 272 268
253 255 255 247 236 230 232 237 238 240 243 248 250 250 242 234 236 244 254 257 256 251 245 240 241 246 252 255 256 258 261 271 262 226 218 213 207 203 206 211 212 209 203 220 249 268 275 271 269 270 274 275 275 275 277 280 282 282 281 281 282 282 282 291 298 301 298 294 291 290 287 288 288 289 288 286 284 281 279 275 272 270 270 270 271 271
259 258 255 246 238 235 236 240 242 242 244 248 249 249 241 232 233 240 249 256 257 255 250 246 248 251 252 252 253 257 266 290 307 302 267 235 221 212 202 199 198 196 193 206 225 248 267 274 275 276 275 272 270 270 272 276 279 280 281 281 281 280 279 285 291 294 294 293 291 289 286 285 287 288 288 288 286 285 284 283 282 281 280 280 281 281
261 259 255 251 250 252 254 256 255 253 250 249 248 247 242 234 234 240 248 255 259 261 260 253 253 258 264 264 261 258 259 271 288 302 308 288 253 224 204 199 196 197 201 214 225 234 243 259 270 277 279 273 268 266 266 271 275 279 281 283 283 283 283 284 285 287 288 290 290 288 286 286 287 288 289 290 290 290 288 288 289 290 290 290 287 285
250 249 248 249 251 254 257 259 258 257 256 255 254 251 248 241 240 243 251 257 264 271 276 266 259 259 264 268 268 266 265 265 267 273 283 291 287 262 231 220 216 216 219 228 235 239 242 247 255 262 269 271 271 269 267 269 272 276 280 283 284 283 282 282 283 284 285 286 287 288 290 291 290 289 290 292 292 292 291 291 290 289 289 287 284 281
235 238 240 243 246 250 254 254 256 258 263 265 266 263 257 243 240 243 253 252 259 267 273 266 261 260 261 262 262 262 265 267 265 260 252 247 241 235 233 235 237 238 240 245 249 250 249 247 247 248 253 260 266 270 272 270 270 272 276 279 281 282 281 282 284 285 285 283 283 284 287 289 291 293 295 295 295 293 293 291 289 286 283 282 280 278
227 230 234 237 240 242 246 247 251 255 263 269 269 267 257 241 240 243 242 236 239 247 255 258 261 263 264 261 258 257 260 264 265 262 252 242 231 224 220 229 244 256 260 258 256 255 255 251 245 241 241 247 255 263 269 270 270 271 273 275 276 278 280 282 284 285 285 285 284 284 283 285 288 292 296 295 294 293 292 291 289 286 283 280 277 275
227 228 228 230 234 237 239 239 243 250 259 264 267 265 257 242 232 229 230 230 233 237 244 250 256 261 264 264 261 258 257 259 260 259 253 243 230 220 217 221 247 269 278 273 269 266 267 261 250 242 238 240 245 253 262 266 269 270 270 270 271 274 278 281 284 287 288 288 288 287 286 286 288 289 291 291 291 291 291 290 289 287 285 282 278 276
230 229 227 227 230 233 233 233 238 246 254 259 262 263 260 252 240 231 226 226 230 234 238 242 248 255 261 264 263 260 257 257 258 257 252 242 229 219 218 218 234 262 279 283 285 285 286 284 277 263 249 244 243 245 253 261 267 271 271 270 271 273 278 281 284 286 287 287 288 289 290 290 290 289 288 288 289 289 290 289 288 288 288 286 283 280